This is the latest recevied weather packets stored in our database for station/object K4CRS-13. If no packets are shown the sender has not sent any weather packets the latest 1 day(s).
| Time | Temp. | Humidity | Pressure | Rain* | Wind** | Luminosity | Snow |
|---|---|---|---|---|---|---|---|
| 1778012880 | 21.67° C | 68% | 1045.9 hPa | 0 mm | 1.34 m/s, 165° | 162 W/m² | - |
| 1778012576 | 21.67° C | 68% | 1046.4 hPa | 0 mm | 0.89 m/s, 186° | 96 W/m² | - |
| 1778012273 | 21.67° C | 67% | - | 0 mm | 1.34 m/s, 178° | - | - |
| 1778009073 | 23.89° C | 59% | 1046.5 hPa | 0 mm | 0.89 m/s, 186° | 461 W/m² | - |
| 1778008771 | 23.89° C | 59% | 1046.5 hPa | 0 mm | 0.89 m/s, 186° | 461 W/m² | - |
| 1778008470 | 24.44° C | 60% | 1046.6 hPa | 0 mm | 1.34 m/s, 164° | 555 W/m² | - |
| 1778008166 | 24.44° C | 61% | 1046.7 hPa | 0 mm | 1.79 m/s, 196° | 792 W/m² | - |
| 1778007861 | 23.89° C | 64% | 1046.8 hPa | 0 mm | 0.89 m/s, 183° | 869 W/m² | - |
| 1778007556 | 22.78° C | 66% | 1046.7 hPa | 0 mm | 0.89 m/s, 182° | 840 W/m² | - |
| 1778007254 | 22.22° C | 70% | 1047 hPa | 0 mm | 0.45 m/s, 186° | 327 W/m² | - |
| 1778006950 | 21.67° C | 72% | 1047 hPa | 0 mm | 1.34 m/s, 184° | 624 W/m² | - |
| 1778006647 | 21.11° C | 71% | 1047.1 hPa | 0 mm | 0.45 m/s, 173° | 241 W/m² | - |
| 1778006344 | 20.56° C | 72% | 1047.4 hPa | 0 mm | 0 m/s | 185 W/m² | - |
| 1778006041 | 20.56° C | 73% | 1047.5 hPa | 0 mm | 0.45 m/s, 177° | 208 W/m² | - |
| 1778005737 | 20.56° C | 72% | 1047.5 hPa | 0 mm | 0 m/s | 163 W/m² | - |
| 1778005434 | 20.56° C | 72% | 1047.8 hPa | 0 mm | 0.89 m/s, 183° | 122 W/m² | - |
| 1778005131 | 20.56° C | 72% | 1047.8 hPa | 0 mm | 0.45 m/s, 171° | 243 W/m² | - |
| 1778004828 | 20.56° C | 72% | 1047.7 hPa | 0 mm | 0.89 m/s, 178° | 264 W/m² | - |
| 1778004525 | 20.56° C | 71% | 1047.9 hPa | 0 mm | 0.45 m/s, 183° | 199 W/m² | - |
| 1778004221 | 20.56° C | 71% | 1047.9 hPa | 0 mm | 0.89 m/s, 169° | 223 W/m² | - |
| 1778003918 | 20.56° C | 68% | 1047.9 hPa | 0 mm | 0.45 m/s, 169° | 221 W/m² | - |
| 1778003614 | 21.11° C | 66% | 1047.7 hPa | 0 mm | 0.89 m/s, 166° | 101 W/m² | - |
| 1778003311 | 21.67° C | 66% | 1048.4 hPa | 0 mm | 0.89 m/s, 182° | 109 W/m² | - |
| 1778003008 | 22.22° C | 63% | 1048.6 hPa | 0 mm | 0.45 m/s, 165° | 118 W/m² | - |
| 1778002704 | 22.22° C | 64% | 1049 hPa | 0 mm | 0.45 m/s, 177° | 190 W/m² | - |
* Rain latest hour (hover to see other rain measurements)
** Current wind speed in m/s (hover to see current wind gust speed)